Location: ????????
(56.1167°N, 38.6333°E)
Time: 21:38:59
(UTC+00:00)

Resurs 01 Rocket - Pass Details

Date: 18 November 2025
Orbit: 626 x 636 km, 97.7° (Epoch: 06 December)

Event Time Altitude Azimuth Distance (km) Brightness Sun altitude
Exits shadow 14:15:17 11° 66° (ENE) 1,964 3.4 -8.6°
Maximum altitude 14:16:38 12° 48° (NE) 1,876 3.4 -8.8°
Drops below altitude 10° 14:18:28 10° 23° (NNE) 2,038 3.8 -9.0°
Sets 14:21:54 0° 355° (N) 2,950 4.9 -9.5°
